Simultaneous Nadir Overpasses (SNOs) Predictions

Prediction of SNOs between GOES-17 and NOAA-20 Satellite Orbit:

Table of predicted SNOs for the next 14.0 days since TLE Epoch: 3/2/2024
Index Date Time (GOES-17) GOES-17 Lat,Lon NOAA-20 Lat,Lon Distance(km) Time Diff (sec)
1 03/02/2024 20:33:44 -0.01,-104.68 -0.58,-107.33 301.16 80
2 03/03/2024 20:17:38 -0.01,-104.68 0.40,-102.79 215.58 80
3 03/05/2024 08:39:25 0.02,-104.70 0.77,-108.05 382.39 80
4 03/06/2024 08:18:00 0.02,-104.70 -0.21,-103.51 134.07 80
5 03/07/2024 20:39:56 -0.02,-104.67 -0.96,-108.82 472.54 80
6 03/08/2024 20:23:52 -0.02,-104.67 0.08,-104.29 44.16 80
7 03/11/2024 08:26:54 0.02,-104.69 0.09,-105.02 36.74 80
8 03/12/2024 08:05:28 0.02,-104.70 -0.90,-100.48 479.99 80
9 03/13/2024 20:27:24 -0.02,-104.67 -0.26,-105.78 126.15 80
10 03/14/2024 20:11:19 -0.03,-104.68 0.73,-101.25 390.73 80
